OpenBCM V1.13 (Linux)

Packet Radio Mailbox

DB0FHN

[JN59NK Nuernberg]

 Login: GUEST





  
LU1HVK > KEP      28.08.19 23:00l 244 Lines 12026 Bytes #999 (0) @ WW
BID : 30541_LU1HVK
Read: DJ6UX GUEST
Subj: TLE 28 08
Path: DB0FHN<OE2XZR<OE5XBR<OE1XAB<HG8LXL<CX2SA<N3HYM<IV3BVK<IK5FKA<LU9HGS<
      LU1HVK
Sent: 190828/2028Z 30541@LU1HVK.2594.CBA.ARG.SA LinBPQ6.0.18

                         _    _   _ _ _   ___     ___  __
                        | |  | | | / | | | \ \   / / |/ /
                        | |  | | | | | |_| |\ \ / /| ' /
                        | |__| |_| | |  _  | \ V / | . \
                        |_____\___/|_|_| |_|  \_/  |_|\_\

     BBS/NODO - CORDOBA (LEONES-FF87UH) - LU1HVK-4 NODO - LU1HVK-3 APRS

+----------------------------------------------------------------------------+
OSCAR 7
1  7530U 74089B   19240.17247899 -.00000036  00000-0  56891-4 0  9999
2  7530 101.7507 207.1285 0011810 209.9711 220.0072 12.53639556 49352
OSCAR 11 (UoSAT 2)
1 14781U 84021B   19239.79944520 +.00000033 +00000-0 +10221-4 0  9996
2 14781 097.6083 261.1901 0010065 089.8683 270.3685 14.83102125888158
OSCAR 19 (LUSAT)
1 20442U 90005G   19240.40386948 -.00000035  00000-0  35628-5 0  9992
2 20442  98.6518 182.2987 0010832 304.8391  55.1773 14.32931155546502
EYESAT A
1 22825U 93061C   19240.51599454 -.00000011  00000-0  13805-4 0  9990
2 22825  98.9082 230.7847 0008938 146.4643 213.7106 14.30065027352079
ITAMSAT
1 22826U 93061D   19240.22136370 -.00000010  00000-0  14194-4 0  9994
2 22826  98.9021 230.4658 0009635 137.0572 223.1363 14.30398815352234
RADIO ROSTO
1 23439U 94085A   19239.84760956 -.00000053 +00000-0 -30522-3 0  9991
2 23439 064.8198 002.6721 0145830 099.6324 262.1108 11.27568438015800
JAS 2
1 24278U 96046B   19239.79783608 -.00000015  00000-0  18367-4 0  9996
2 24278  98.5475  23.7222 0351207  58.3474 305.1423 13.53093032137288
TECHSAT 1B
1 25397U 98043D   19240.46260742 -.00000031  00000-0  56063-5 0  9997
2 25397  98.6914 179.7603 0001488 143.4307 216.6974 14.23669440 97944
ISS (ZARYA)
1 25544U 98067A   19240.69471065 -.00000463  00000-0  00000+0 0  9997
2 25544  51.6452   1.5935 0007879 338.1505 227.8113 15.50394522186504
PCSAT
1 26931U 01043C   19239.83431015 -.00000049 +00000-0 +13146-4 0  9991
2 26931 067.0511 182.6774 0007487 273.4956 086.5289 14.30550319934937
SAUDISAT 1C
1 27607U 02058C   19240.16768652 -.00000065  00000-0  11792-4 0  9990
2 27607  64.5545 194.1233 0078294 242.9446 116.3652 14.75566900897435
CUTE-1
1 27844U 03031E   19240.49947389  .00000038  00000-0  36677-4 0  9995
2 27844  98.6848 247.6553 0009756 179.3377 180.7815 14.22191355838356
CUBESAT XI 4
1 27848U 03031J   19239.80804957  .00000028  00000-0  32455-4 0  9994
2 27848  98.6925 247.4890 0009366 193.1570 166.9364 14.21784822838108
MOZHAYETS 4
1 27939U 03042A   19240.44789952  .00000040  00000-0  15704-4 0  9998
2 27939  98.0505  14.9237 0012815 197.8030 162.2737 14.66798291850914
CUBESAT XI 5
1 28895U 05043F   19240.39985936  .00000076  00000-0  23453-4 0  9996
2 28895  97.9689  20.7460 0017990 126.0992 234.1880 14.63684926737828
CUTE-1.7+APD II
1 32785U 08021C   19240.14396867  .00000138  00000-0  20485-4 0  9991
2 32785  97.5526 236.5449 0013991  35.1704 325.0434 14.88334791614164
DELFI C3
1 32789U 08021G   19240.13316340  .00000796  00000-0  57068-4 0  9999
2 32789  97.4593 287.6555 0010768 239.8712 120.1449 15.07067813617575
SEEDS
1 32791U 08021J   19239.97656312  .00000170  00000-0  22552-4 0  9994
2 32791  97.5296 242.4272 0013598  10.9033 349.2478 14.90855376614586
YUBELEINY
1 32953U 08025A   19240.38988922  .00000020  00000-0  75656-4 0  9997
2 32953  82.5005 100.8028 0019442 337.6644  22.3581 12.43091040511097
PRISM (HITOMI)
1 33493U 09002B   19239.79384984  .00000533  00000-0  52178-4 0  9997
2 33493  98.1196 163.4058 0014118 315.1855  44.8224 14.96705186575635
KKS-1 (KISEKI)
1 33499U 09002H   19240.20400469  .00000066  00000-0  17729-4 0  9992
2 33499  98.3465  81.1471 0008923 350.6025   9.5015 14.75457152569629
SWISSCUBE
1 35932U 09051B   19240.43445270  .00000079  00000-0  28892-4 0  9991
2 35932  98.5949  48.5050 0006700 315.1994  44.8661 14.56303130527071
BEESAT
1 35933U 09051C   19239.47131399  .00000070  00000-0  26873-4 0  9996
2 35933  98.5970  49.3017 0005208 335.9618  24.1335 14.56389766527048
ITUPSAT 1
1 35935U 09051E   19240.11921211  .00000064  00000-0  25822-4 0  9997
2 35935  98.6080  50.2021 0007405 327.7431  32.3311 14.55547373526887
XIWANG-1 (HOPE-1)
1 36122U 09072B   19240.19205731 -.00000040  00000-0  53451-5 0  9994
2 36122 100.0744 239.2628 0006978 180.0779 180.0335 13.16350641466158
TISAT 1
1 36799U 10035E   19240.41051424  .00000069  00000-0  13138-4 0  9995
2 36799  98.1646  34.9455 0011617 208.3187 151.7400 14.91140033495300
JUGNU
1 37839U 11058B   19239.46799535  .00000317  00000-0  27269-4 0  9998
2 37839  19.9608 271.6479 0019018  16.8911 123.9469 14.12656496407139
SRMSAT
1 37841U 11058D   19239.61670341 +.00000312 +00000-0 +26014-4 0  9993
2 37841 019.9729 328.9675 0011689 245.0551 252.7322 14.10637122406481
M-CUBED/EXP-1 PRIME
1 37855U 11061F   19239.78110973  .00000195  00000-0  18204-4 0  9991
2 37855 101.7100 171.3536 0173004 228.9940 129.6203 15.05544331427327
HORYU 2
1 38340U 12025D   19239.82016381  .00000099  00000-0  22485-4 0  9994
2 38340  98.3242 280.4959 0010189 259.2937 100.7124 14.75740634391505
STRAND 1
1 39090U 13009E   19240.13576591  .00000026  00000-0  24323-4 0  9993
2 39090  98.4829  84.8928 0010391  80.5988 279.6371 14.35094458340492
SOMP
1 39134U 13015E   19239.81565983 +.00000677 +00000-0 +40151-4 0  9994
2 39134 064.8634 153.2312 0034732 291.8989 067.8447 15.20270082350871
BEESAT 3
1 39135U 13015F   19239.79658388 +.00000594 +00000-0 +39154-4 0  9993
2 39135 064.8693 172.5829 0030759 305.1211 054.7033 15.17559576350494
BEESAT 2
1 39136U 13015G   19239.79428440 +.00000617 +00000-0 +40973-4 0  9995
2 39136 064.8683 176.6134 0022885 304.5053 055.3911 15.16974897350416
CUBEBUG 1
1 39153U 13018D   19240.52188412  .00000087  00000-0  18314-4 0  9997
2 39153  97.9804 338.2566 0016183 333.3761  26.6619 14.80586254342291
ZACUBE
1 39417U 13066B   19240.50550264  .00000123  00000-0  21725-4 0  9990
2 39417  97.5626 250.0280 0059477 160.3866 199.9654 14.81138775311520
TRITON 1
1 39427U 13066M   19240.48619399  .00000155  00000-0  32990-4 0  9994
2 39427  97.6831 213.5142 0112522 299.2724  59.7271 14.67869383308723
GOMX 1
1 39430U 13066Q   19240.38602932  .00000134  00000-0  33084-4 0  9994
2 39430  97.7518 192.3029 0152084  31.7591 329.2676 14.59274258306911
HUMSAT D
1 39433U 13066T   19239.68769815  .00000297  00000-0  34198-4 0  9999
2 39433  97.5482 284.3128 0032212  68.4870 291.9778 14.92232303313515
CUBEBUG 2
1 39440U 13066AA  19239.99000699  .00000122  00000-0  24055-4 0  9997
2 39440  97.6056 234.2887 0079248 215.7357 143.8535 14.75876797310340
FUNCUBE 1
1 39444U 13066AE  19240.53441602  .00000168  00000-0  26887-4 0  9991
2 39444  97.5604 252.0690 0058754 153.8802 206.5397 14.81962404310428
UWE-3
1 39446U 13066AG  19239.80614965  .00000132  00000-0  24150-4 0  9997
2 39446  97.5832 241.2128 0069715 189.9991 169.9838 14.78411436309629
SPROUT
1 39770U 14029E   19240.53844434  .00000436  00000-0  54294-4 0  9994
2 39770  97.8877 343.3863 0008104 204.4754 155.6073 14.87397298285362
UNISAT 6
1 40012U 14033C   19239.86808986 +.00000110 +00000-0 +23867-4 0  9997
2 40012 097.7484 103.4250 0057092 230.6517 128.9626 14.73998347279029
DUCHIFAT 1
1 40021U 14033M   19240.49649564  .00000152  00000-0  21364-4 0  9999
2 40021  97.9225 165.3238 0012899 170.2331 189.9139 14.90665056282090
QB50P1
1 40025U 14033R   19239.79232223 +.00000183 +00000-0 +25427-4 0  9992
2 40025 097.9032 159.3587 0012166 182.3731 177.7430 14.88969943281249
CHUBUSAT 1
1 40300U 14070C   19240.52169078  .00000381  00000-0  19535-4 0  9992
2 40300  97.3232 312.9019 0019924 162.7193 250.0959 15.22141245266791
NUDT-PHONESAT
1 40900U 15049B   19240.48767462  .00001167  00000-0  52642-4 0  9990
2 40900  97.4375 249.1321 0011298 302.3567 212.0151 15.22959280218432
ZDPS 2A
1 40901U 15049C   19240.35552645  .00000498  00000-0  27970-4 0  9994
2 40901  97.4613 245.1612 0012393 323.7605 145.2129 15.17796720217954
ZDPS 2B
1 40902U 15049D   19240.52233527  .00000663  00000-0  36260-4 0  9995
2 40902  97.4551 242.7679 0012471 320.5593 157.0647 15.17637085217954
XW-2A
1 40903U 15049E   19240.38707699  .00000876  00000-0  22522-4 0  9998
2 40903  97.3330 283.5355 0011918 247.2252 211.6247 15.42014084221140
KAITUO 1A
1 40904U 15049F   19240.46484545  .00000442  00000-0  26859-4 0  9996
2 40904  97.4690 241.2667 0013644 328.6386 185.8099 15.15406760217719
OBJECT G
1 40905U 15049G   19240.45795752  .00000367  00000-0  23600-4 0  9998
2 40905  97.4731 238.7389 0014531 323.1000 162.8359 15.14327290217585
XW-2C
1 40906U 15049H   19240.45185084  .00000088  00000-0  81074-5 0  9990
2 40906  97.4693 241.3638 0013772 319.5415 198.7639 15.15724271217710
XW-2D
1 40907U 15049J   19240.54529486  .00000500  00000-0  29522-4 0  9997
2 40907  97.4680 241.1357 0012820 316.2796 161.9449 15.15918628217747
LILACSAT 2
1 40908U 15049K   19240.45969170  .00000298  00000-0  20092-4 0  9993
2 40908  97.4803 239.8119 0014940 323.1965 163.4774 15.13833968217519
XW-2F
1 40910U 15049M   19240.43475688  .00000343  00000-0  20539-4 0  9997
2 40910  97.4644 243.1254 0013330 308.3886 141.6810 15.17375657217746
XW-2B
1 40911U 15049N   19240.45634825  .00000253  00000-0  16687-4 0  9999
2 40911  97.4693 241.7086 0012903 317.6196 199.5412 15.15846384217625
KAITUO 1B
1 40912U 15049P   19240.56052550  .00000571  00000-0  29948-4 0  9998
2 40912  97.4505 246.9990 0013179 287.2218 189.8429 15.19699120218070
TIANWANG 1C (TW-1C)
1 40926U 15051B   19240.43856808  .00007703  00000-0  10870-3 0  9997
2 40926  97.1309 286.5512 0009935 109.8104 307.8718 15.56811527221167
TIANWANG 1B (TW-1B)
1 40927U 15051C   19240.54078884  .00007389  00000-0  11082-3 0  9996
2 40927  97.1341 285.8809 0009979 118.0398 334.4890 15.55162286221022
